STARLINK-1117 (44952 NORAD) Tracking and Keplerian Element Data

This shows tracking and keplerian element data for the satellite.

Feedback or suggestion? Click here.




ElementValue
Catalog44952
NameSTARLINK-1117
Epoch Orbit161
Epoch Day93.91667824
Epoch Year2020
RAAN333.6368
Inclination52.9985
Eccentricity0.0001974
Argument of Perigee79.4574
Mean Anonmoly58.4625
Mean Motion15.05615453
Decay Rate-0.00011676
L11 44952U 20001AQ 20093.91667824 -.00011676 00000-0 -78268-3 0 9991
L22 44952 52.9985 333.6368 0001974 79.4574 58.4625 15.05615453 1616

Live tracking and technical data element details for STARLINK-1117 (NORAD 44952). STARLINK-1117 can be tracked NOW for your location showing map with azimuth and elevation plus other details from your city location.

Track the satellite on the map from your city or location and see movement details for azimuth, elevation, latitude, longitude, range, height, and movement on the map or in text.







IsCatalogInMostPopularTable: catalog: 44952, numindb: 17
Update: records affected: 1



GetName: 44952 STARLINK-1117

Hit Count: updated at: Fri, 03 Apr 2020 23:04:12 GMT